This is the latest recevied weather packets stored in our database for station/object KC5EZZ-2. If no packets are shown the sender has not sent any weather packets the latest 10 day(s).
| Time | Temp. | Humidity | Pressure | Rain* | Wind** | Luminosity | Snow |
|---|---|---|---|---|---|---|---|
| 1777956171 | 23.33° C | - | - | 0 mm | 6.71 m/s, 176° | - | - |
| 1777955570 | 23.33° C | - | - | 0 mm | 4.92 m/s, 187° | - | - |
| 1777955267 | 23.33° C | - | - | 0 mm | 4.92 m/s, 180° | - | - |
| 1777954968 | 23.89° C | - | - | 0 mm | 5.36 m/s, 150° | - | - |
| 1777954668 | 23.89° C | - | - | 0 mm | 5.81 m/s, 173° | - | - |
| 1777954365 | 23.89° C | - | - | 0 mm | 4.92 m/s, 194° | - | - |
| 1777954066 | 23.89° C | - | - | 0 mm | 6.26 m/s, 162° | - | - |
| 1777953767 | 23.89° C | - | - | 0 mm | 4.92 m/s, 124° | - | - |
| 1777953526 | 23.89° C | - | - | 0 mm | 5.36 m/s, 193° | - | - |
| 1777953464 | 23.89° C | - | - | 0 mm | 5.36 m/s, 193° | - | - |
| 1777953239 | 23.89° C | - | - | 0 mm | 4.92 m/s, 170° | - | - |
| 1777953165 | 23.89° C | - | - | 0 mm | 4.92 m/s, 170° | - | - |
| 1777952865 | 24.44° C | - | - | 0 mm | 4.92 m/s, 165° | - | - |
| 1777952563 | 23.89° C | - | - | 0 mm | 4.92 m/s, 210° | - | - |
| 1777952402 | 24.44° C | - | - | 0 mm | 5.36 m/s, 149° | - | - |
| 1777952263 | 24.44° C | - | - | 0 mm | 5.36 m/s, 149° | - | - |
| 1777951963 | 24.44° C | - | - | 0 mm | 4.92 m/s, 162° | - | - |
| 1777951661 | 24.44° C | - | - | 0 mm | 5.36 m/s, 186° | - | - |
| 1777951361 | 24.44° C | - | - | 0 mm | 5.36 m/s, 160° | - | - |
| 1777951062 | 24.44° C | - | - | 0 mm | 4.92 m/s, 184° | - | - |
| 1777950759 | 24.44° C | - | - | 0 mm | 5.36 m/s, 172° | - | - |
| 1777950460 | 25° C | - | - | 0 mm | 4.92 m/s, 158° | - | - |
| 1777950160 | 25° C | - | - | 0 mm | 4.02 m/s, 193° | - | - |
| 1777949858 | 25° C | - | - | 0 mm | 3.58 m/s, 146° | - | - |
| 1777949558 | 25° C | - | - | 0 mm | 4.47 m/s, 191° | - | - |
* Rain latest hour (hover to see other rain measurements)
** Current wind speed in m/s (hover to see current wind gust speed)